Regional Weather Roundup
Issued by NWS Grand Forks, ND

Home | Current Version | Previous Version | Graphics & Text | Print | Product List | Glossary On
Versions: 1 2 3 4 5 6 7 8 9 10 11 12 13 14 15 16 17 18 19 20 21 22 23 24 25 26 27 28 29 30 31 32 33 34 35 36 37 38 39 40 41 42 43 44 45 46 47 48 49 50
000
ASUS43 KFGF 051410
RWRFGF
PRAIRIE TO PINES  WEATHER ROUNDUP
NATIONAL WEATHER SERVICE EASTERN NORTH DAKOTA/GRAND FORKS ND
800 AM CST MON DEC 05 2016

 **SATELLITE DATA USED TO AUGMENT SKY COVER AT AUTOMATED STATIONS**
 *****  WEATHER ACROSS EASTERN NORTH DAKOTA  *****

CITY           SKY/WX    TMP DP  RH WIND       PRES   REMARKS
GRAND FORKS    CLOUDY    27  24  89 E7        29.69F FOG     WCI  19
GRAND FRKS AFB CLOUDY    25  25 100 SE9       29.68F FOG     WCI  15
GRAND FRKS NWS   N/A     27 N/A N/A E6          N/A  WCI  20
DEVILS LAKE    CLOUDY    22  21  96 E14       29.61F WCI   9
FARGO          CLEAR     21  18  88 E7        29.65F WCI  12
WAHPETON ARPT  SUNNY     28  27  93 E10       29.63F WCI  19
$$

 ***** WEATHER ACROSS CENTRAL AND WESTERN NORTH DAKOTA  *****

CITY           SKY/WX    TMP DP  RH WIND       PRES   REMARKS
BISMARCK       CLOUDY    20  18  92 CALM      29.56R
MINOT          CLOUDY    20  17  88 E6        29.51S WCI  12
JAMESTOWN      CLEAR     23  21  92 E6        29.57S WCI  16
MINOT AFB      NOT AVBL
GARRISON         N/A     31  26  82 W12       29.51R WCI  22
WILLISTON      CLOUDY    23  19  85 NW13      29.56R WCI  11
DICKINSON      CLOUDY    27  23  85 W31       29.51R FOG     WCI  10
HETTINGER      CLOUDY    31  26  82 NW23      29.54R WCI  18
$$

 *****  OTHER AIRPORT OBSERVATIONS IN OUR AREA  *****

CITY           SKY/WX    TMP DP  RH WIND       PRES   REMARKS
WALHALLA         N/A     27  27 100 SE9       29.69S WCI  17
GRAFTON AIRPOR CLOUDY    25  25 100 SE7       29.73R FOG     WCI  17
VALLEY CITY AR FAIR      19  19 100 E8        29.63R WCI   9
CANDO          CLOUDY    23  23 100 E13       29.62F WCI  11
CAVALIER APRT    N/A     27  27 100 S7        29.71R WCI  19
GWINNER          N/A     28  27  93 E6        29.60S WCI  22
SHEYENNE NWR     N/A     22  20  91 E7        29.95S WCI  13
ROLLA          CLOUDY    19  19 100 E9        29.59S WCI   9
 ***** THE ABOVE OBSERVATIONS ARE NON NWS ARE NOT QUALITY
       CONTROLLED AND MAY MIS-REPORT RAIN FOR SNOW...
$$

  *****  WEATHER ACROSS NORTHERN MINNESOTA  *****

CITY           SKY/WX    TMP DP  RH WIND       PRES   REMARKS
FLAG ISLAND    CLOUDY    28  27  93 W6        29.69S WCI  22
WARROAD        CLOUDY    28  27  93 W3        29.71S
ROSEAU         CLOUDY    30  25  80 CALM      29.71R
HALLOCK        CLOUDY    28  27  93 SE5       29.70R WCI  23
THF RVR FALLS  CLOUDY    26  24  92 E9        29.71S WCI  17
BAUDETTE       CLOUDY    29  25  85 NW5       29.70R WCI  24
WASKISH        CLOUDY    28  27  93 CALM      29.72S
CROOKSTON      CLOUDY    27  27 100 E7        29.70F FOG     WCI  19
GREENBUSH NDAW   N/A     27  27 100 E5          N/A  WCI  21
$$
  *****  WEATHER ACROSS CENTRAL AND WEST MINNESOTA  *****

CITY           SKY/WX    TMP DP  RH WIND       PRES   REMARKS
FOSSTON        CLOUDY    25  25 100 E8        29.70F FOG     WCI  16
BEMIDJI        CLOUDY    27  25  94 SE6       29.73R WCI  20
PARK RAPIDS    FOG       26  23  88 E6        29.70F VSB 1/4 WCI  19
ELBOW LAKE     FAIR      28  26  91 CALM      29.65S
WADENA         CLEAR     19  18  93 E3        29.70R
DETROIT LAKES  CLEAR     25  23  93 SE3       29.68S
MOORHEAD       CLEAR     21  19  93 E5        29.66F WCI  15
FERGUS FALLS   CLEAR     27  27 100 E6        29.69F WCI  20
MORRIS MN      CLEAR     28  27  93 SE12      29.63F WCI  18
STAPLES        CLEAR     19  19 100 CALM      29.71S
$$
  *****  WEATHER ELSEWHERE ACROSS MINNESOTA  *****

CITY           SKY/WX    TMP DP  RH WIND       PRES   REMARKS
DULUTH         CLOUDY    30  26  85 W6        29.75S WCI  24
INTRNTL FALLS  CLOUDY    29  25  85 W5        29.72R WCI  24
ELY            CLOUDY    28  27  93 W6        29.73R WCI  22
CLOQUET        CLOUDY    30  27  86 SW3       29.76R
WHEATON        NOT AVBL
BRAINERD       FOG       21  20  96 E3        29.74S VSB 3/4
HIBBING        CLOUDY    27  24  89 CALM      29.74R
ALEXANDRIA     CLEAR     26  25  96 E9        29.67F WCI  17
SAINT CLOUD    MOCLDY    27  27 100 SE7       29.74R FOG     WCI  19
MINNEAPOLIS    MOCLDY    31  27  85 SE9       29.77F WCI  23
$$

  *****  WEATHER ACROSS SOUTH DAKOTA  *****

CITY           SKY/WX    TMP DP  RH WIND       PRES   REMARKS
SIOUX FALLS    CLOUDY    37  30  75 S15       29.58F
BROOKINGS      CLOUDY    32  29  88 SE13      29.56F WCI  22
WATERTOWN      PTCLDY    31  26  82 SE10      29.56F WCI  22
HURON          CLOUDY    30  27  88 SE8       29.53S WCI  22
SISSETON         N/A     22  20  92 S6        29.61F WCI  14
ABERDEEN       PTCLDY    26  22  84 E6        29.54F WCI  19
MITCHELL       PTCLDY    33  28  81 SE9       29.54F
PIERRE         CLOUDY    22  20  92 NE6       29.46F WCI  14
MOBRIDGE       CLOUDY    29  24  82 NW13      29.50R WCI  19
RAPID CITY     CLEAR     32  27  81 NW28G37   29.50R WCI  18
$$

  *****  SOME WEATHER IN NEARBY STATES *****

CITY           SKY/WX    TMP DP  RH WIND       PRES   REMARKS
GLASGOW MT     LGT SNOW  20  18  92 NW24      29.75R FOG     WCI   3
GREAT FALLS MT CLOUDY    16  11  80 NW9       29.92R WCI   4
CHEYENNE WY    CLEAR     36  19  50 W16       29.56F
SCOTTSBLUFF NE PTCLDY    45  23  42 W10       29.54S
OMAHA NE       MOCLDY    36  29  75 S16       29.76F
DES MOINES IA  CLOUDY    33  32  96 S9        29.85F FOG
DAVENPORT IA   FOG       31  30  96 S10       29.97S VSB 1/4 WCI  22
CHICAGO IL     CLOUDY    32  30  92 SW6       30.01R
EAU CLAIRE WI  FOG       29  29 100 S8        29.84R VSB 1/4 WCI  21
LA CROSSE WI   CLOUDY    35  33  92 S14       29.88R FOG
$$

  *****  SOME NATIONAL WEATHER *****

CITY           SKY/WX    TMP DP  RH WIND       PRES   REMARKS
LA GUARDIA NY  CLOUDY    44  39  82 SW12G18   29.99F
RALEIGH NC     PTSUNNY   44  42  93 CALM      30.03R
ATLANTA GA     CLOUDY    46  45  96 E5        30.01R FOG
NEW ORLEANS LA FOG       60  60 100 NE3       29.87S VSB 3/4
OKLAHOMA CITY  FOG       31  30  96 S3        29.88S VSB 1/4
ALBUQUERQUE NM CLOUDY    28  14  55 W3        29.94R
SALT LAKE CITY CLOUDY    32  13  45 NE7       30.00R
LOS ANGELES CA FOG       53  53 100 NE5       29.96R VSB 1/16
BOISE ID       CLEAR     21  15  78 CALM      30.12R
SEATTLE WA     CLOUDY    37  32  82 S12       30.08F
$$

*** WEATHER ACROSS MANITOBA...SASKATCHEWAN AND ONTARIO ***
                ***ONTARIO***

CITY           SKY/WX    TMP DP  RH WIND       PRES   REMARKS
GERALDTON      FOG       21  19  93 NW2       29.64S VSB 1/2
THUNDER BAY    MOCLDY    28  28 100 W2        29.72R
SIOUX LOOKOUT  SNOWSHWR  28  27  93 S2        29.66R
TORONTO        PTSUNNY   37  32  81 W14       29.86R
BIG TROUT LK   CLOUDY    25  23  93 SE5       29.71R WCI  19
PICKLE LAKE    FLURRIES  19  19 100 NE2       29.66R
DRYDEN         CLOUDY    28  28 100 SW5       29.65R WCI  23
KENORA         FLURRIES  28  27  93 W3        29.67R
$$
                *** MANITOBA***

CITY           SKY/WX    TMP DP  RH WIND       PRES   REMARKS
BRANDON        FOG       21  21 100 E15       29.64S VSB 3/8 WCI   8
DAUPHIN        FOG       19  18  93 N5        29.69R VSB 1/2 WCI  13
ISLAND LAKE    NOT AVBL
PILOT MOUND      N/A     21  21 100 E8          N/A  WCI  12
THE PAS        CLOUDY    21  18  86 W7        29.69R WCI  13
THOMPSON       FLURRIES  23  21  93 VRB2      29.69R
WINNIPEG       CLOUDY    30  25  80 NE5       29.70S
LYNN LAKE      CLOUDY    23  23 100 CALM      29.66R
CHURCHILL      FLURRIES  21  21 100 E5        29.81S WCI  15
GILLAM         FLURRIES  16  14  93 VRB2      29.75R
$$
                ***SASKATCHEWAN***

CITY           SKY/WX    TMP DP  RH WIND       PRES   REMARKS
ESTEVAN        HVY SNOW  19  18  93 N6        29.53S VSB 1/4 WCI  11
KINDERSLEY     MOCLDY     5   0  78 NW15G22   29.88R WCI -13
LLOYDMINSTER   FLURRIES   3  -2  78 NW24G30   29.90R WCI -20
PRINCE ALBERT  FLURRIES  16  10  79 NW8       29.76R WCI   5
REGINA         CLOUDY    18  16  93 N16G23    29.67R WCI   3
YORKTON          N/A     12  10  92 NW7       29.66R FOG     WCI   2
N. BATTLEFORD  FLURRIES  10   5  79 NW14G22   29.87R WCI  -5
LA RONGE       LGT SNOW  12   9  85 W16       29.75R WCI  -4
SASKATOON      FLURRIES  14   9  79 NW15      29.81R WCI  -1
SWIFT CURRENT  LGT SNOW   7   3  85 NW29G35   29.78R WCI -16
$$
NOTE: THESE ARE AUTOMATED STATIONS WITH LIMITED QUALITY CONTROL
      "FAIR" INDICATES FEW OR NO CLOUDS BELOW 12,000 FEET WITH NO
      SIGNIFICANT WEATHER AND/OR OBSTRUCTIONS TO VISIBILITY.
      SKY/WX - SKY CONDITION AND SIGNIFICANT WEATHER.
      TMP - AIR TEMPERATURE.    DP   - DEWPOINT TEMPERATURE.
      RH  - RELATIVE HUMIDITY.  PRES - PRESSURE.
      HX  - HEAT INDEX.         WCI  - WIND CHILL INDEX.
$




USA.gov is the U.S. government's official web portal to all federal, state and local government web resources and services.